www.pogodaiklimat.ru

Погода и климат >> Архив погоды >> Испания >> Барселона


АРХИВ ПОГОДЫ в Барселоне

Время (UTC), дата Ветер
(напр.,м/с)
 
Видим.   Явления Облачность Т
(С)
Тd
(С)
f
(%)
Тe
(С)
Тes
(С)
Комфортность P
(гПа)
Po
(гПа)
Тmin
(С)
Tmax
(С)
R
(мм)
R24
(мм)
S
(см)
22 8.06 СВ 2 30 км н/о +21.5 +1.2 26 +21 +21 комфорт 1020.7 1020.1
23 8.06 С 3 30 км н/о +20.2 +4.6 36 +21 +21 комфорт 1020.4 1019.8
00 9.06 С 4 35 км 5/0
[Ac und]
+20.0 +3.4 33 +21 +21 комфорт 1019.6 1019.0
01 9.06 С 5 30 км н/о +19.9 +2.7 32 +20 +20 тепло 1018.3 1017.7
02 9.06 С 5 30 км н/о +19.5 +2.8 33 +20 +20 тепло 1017.3 1016.7
03 9.06 С 5 35 км 6/0
[Ac As]
+19.3 +3.1 34 +19 +19 тепло 1016.1 1015.5
04 9.06 С 5 30 км н/о +19.8 +3.5 34 +20 +20 тепло 1015.5 1014.9
05 9.06 С 4 30 км н/о +19.7 +4.3 36 +20 +20 тепло 1015.6 1015.0
06 9.06 С 5 35 км 9/0
[Ac As]
+19.3 +6.4 43 +20 +20 тепло 1015.7 1015.1 +19.2
07 9.06 В 4 30 км н/о +21.1 +9.7 48 +22 +22 комфорт 1017.0 1016.4
08 9.06 В 7 30 км н/о +21.7 +8.0 41 +23 +23 комфорт 1015.7 1015.1
09 9.06 СВ 5 30 км 10/0
[As trans]
+24.1 +3.9 27 +24 +26 комфорт 1015.5 1014.9
10 9.06 С 6 30 км н/о +25.7 +6.2 29 +25 +25 комфорт 1014.8 1014.2
11 9.06 С 4 30 км н/о +26.3 +6.2 28 +26 +26 жарко 1014.3 1013.7
12 9.06 ЮВ 5 30 км 10/0
[As trans]
+26.7 +1.7 20 +25 +30 комфорт 1014.0 1013.4
13 9.06 В 4 30 км н/о +23.5 +14.6 57 +26 +26 жарко 1014.2 1013.6
14 9.06 ЮВ 6 30 км н/о +23.5 +15.9 62 +27 +27 душно 1012.7 1012.1
15 9.06 ЮВ 3 22 км 10/0
[As trans]
+21.6 +17.0 75 +26 +30 душно 1013.1 1012.5
16 9.06 ЮЗ 3 13 км н/о +20.7 +17.5 82 +25 +25 комфорт 1013.2 1012.6
17 9.06 Ю 4 10 км н/о +20.4 +17.4 83 +24 +24 комфорт 1012.8 1012.2
18 9.06 Ю 4 11 км 10/4 600 м
[Sc As trans]
+20.3 +17.3 83 +24 +24 комфорт 1013.6 1013.0 +27.5
19 9.06 ЮЗ 4 10 км н/о +20.1 +17.3 84 +23 +23 комфорт 1013.7 1013.1
20 9.06 ЮЗ 3 9000 м н/о +19.8 +17.4 86 +23 +23 комфорт 1013.9 1013.3
21 9.06 СЗ 2 9000 м осадки на расстоянии 8/1 200 м
[St Ac As]
+19.4 +17.5 89 +22 +22 комфорт 1014.0 1013.4
22 9.06 З 1 9000 м дымка н/о +19.5 +17.3 87 +23 +23 комфорт 1014.0 1013.4
23 9.06 С 1 11 км дымка н/о +19.4 +16.8 85 +22 +22 комфорт 1013.6 1013.0
00 10.06 З 3 8000 м осадки на расстоянии 8/1 300 м
[St Ac As]
+19.3 +17.6 90 +21 +21 комфорт 1013.0 1012.4
01 10.06 Ю 2 8000 м дымка н/о +19.1 +17.8 92 +22 +22 комфорт 1013.1 1012.5
02 10.06 СВ 2 11 км н/о +18.9 +16.6 87 +21 +21 комфорт 1012.4 1011.8
03 10.06 Ю 2 13 км 3/0
[Ac As]
+18.6 +14.7 78 +20 +20 тепло 1012.2 1011.6
04 10.06 штиль 0 16 км н/о +18.0 +13.5 75 +18 +18 по сезону 1012.4 1011.8
05 10.06 С 3 24 км н/о +17.3 +12.2 72 +17 +17 по сезону 1012.8 1012.2
06 10.06 С 5 35 км 5/1 300 м
[Sc Ac cast Cc]
+19.1 +11.6 62 +20 +20 тепло 1013.0 1012.4 +17.1
07 10.06 С 6 26 км н/о +21.8 +11.7 53 +24 +24 комфорт 1013.2 1012.6
08 10.06 С 6 30 км н/о +23.2 +11.6 48 +26 +26 жарко 1013.3 1012.7
09 10.06 СВ 3 30 км 4/3 300 м
[Cu Sc Cs]
+25.8 +10.8 39 +27 +34 жарко 1012.6 1012.0
10 10.06 ЮЗ 5 30 км н/о +25.6 +12.5 44 +27 +27 жарко 1012.9 1012.3
11 10.06 З 6 30 км н/о +25.8 +12.2 43 +27 +27 жарко 1012.7 1012.1
12 10.06 ЮЗ 6 30 км 1/1 600 м
[Cu Sc Cs]
+26.0 +14.2 48 +28 +28 жарко 1012.2 1011.6
13 10.06 ЮЗ 9 30 км н/о +25.3 +13.0 46 +27 +27 жарко 1011.7 1011.1
14 10.06 ЮЗ 8 30 км н/о +26.0 +14.0 48 +28 +28 жарко 1011.3 1010.7
15 10.06 ЮЗ 7 30 км 4/1 600 м
[Cu Sc Cs]
+26.0 +12.1 42 +27 +30 жарко 1010.8 1010.2
16 10.06 ЮЗ 8 30 км н/о +24.3 +14.5 54 +27 +27 жарко 1010.6 1010.0
17 10.06 ЮЗ 7 30 км н/о +23.7 +14.7 57 +26 +26 жарко 1010.4 1009.8
18 10.06 З 6 30 км 8/3 600 м
[Cu Sc Ac As Cs]
+22.8 +14.9 61 +27 +27 душно 1010.6 1010.0 +26.8
19 10.06 З 6 26 км н/о +22.0 +12.5 55 +25 +25 комфорт 1011.0 1010.4
20 10.06 З 6 30 км н/о +21.8 +12.6 56 +24 +24 комфорт 1011.7 1011.1
21 10.06 Ю 4 30 км 9/3 600 м
[Cu Sc Ac As Cs]
+21.2 +16.2 73 +25 +25 комфорт 1012.8 1012.2
22 10.06 Ю 6 27 км н/о +20.3 +17.3 83 +23 +23 комфорт 1012.9 1012.3
23 10.06 ЮВ 6 21 км н/о +20.0 +17.2 84 +23 +23 комфорт 1013.2 1012.6
00 11.06 ЮВ 5 17 км в посл. час дождь 9/1 300 м
[St Ac As]
+19.8 +17.9 89 +22 +22 комфорт 1012.8 1012.2
01 11.06 Ю 4 15 км н/о +19.6 +17.0 85 +22 +22 комфорт 1012.3 1011.7
02 11.06 В 1 21 км слаб. дождь н/о +19.1 +16.5 85 +22 +22 комфорт 1011.7 1011.1
03 11.06 ЮВ 3 14 км {дождь} 10/1 200 м
[Frnb Ac As]
+18.9 +16.9 88 +21 +21 комфорт 1011.4 1010.8 0.5
04 11.06 СВ 5 30 км слаб. дождь н/о +17.8 +12.5 71 +17 +17 по сезону 1011.0 1010.4
05 11.06 С 3 28 км слаб. дождь н/о +17.0 +12.7 76 +17 +17 по сезону 1011.2 1010.6
06 11.06 С 4 30 км слаб. дождь {морось} 10/1 600 м
[Frnb Ac As]
+16.7 +12.1 74 +16 +17 прохладно 1011.5 1010.9 +16.6 0.5
07 11.06 С 3 26 км сильн. дождь н/о +16.0 +12.0 77 +16 +16 холодно 1011.8 1011.2
08 11.06 С 4 15 км слаб. дождь н/о +15.1 +12.1 82 +14 +14 очень
холодно
1012.0 1011.3
09 11.06 С 5 6000 м сильн. дождь н/о +13.7 +12.8 94 +12 +12 очень
холодно
1012.3 1011.6 19
10 11.06 С 6 9000 м слаб. морось {дождь} н/о +14.2 +13.0 92 +12 +12 очень
холодно
1012.4 1011.7
11 11.06 С 7 9000 м дождь н/о +13.7 +12.8 94 +11 +11 очень
холодно
1012.1 1011.4
12 11.06 С 5 8000 м дождь {морось} 10/5 300 м
[Frnb As op]
+14.0 +13.0 94 +12 +13 очень
холодно
1012.7 1012.0 5
13 11.06 С 5 10 км дождь н/о +14.3 +13.0 92 +13 +13 очень
холодно
1012.7 1012.0
14 11.06 С 3 12 км дождь н/о +14.4 +13.1 92 +14 +14 очень
холодно
1013.2 1012.5
15 11.06 С 4 8000 м дождь 10/5 300 м
[Frnb As op]
+14.1 +13.1 94 +13 +14 очень
холодно
1013.0 1012.3 8
16 11.06 СВ 3 30 км слаб. дождь н/о +14.5 +13.2 92 +14 +14 очень
холодно
1013.2 1012.5
17 11.06 СВ 2 11 км дождь н/о +14.3 +12.8 91 +14 +14 очень
холодно
1013.7 1013.0
18 11.06 В 4 15 км слаб. дождь 10/6 200 м
[Frnb As op]
+14.4 +13.2 92 +13 +13 очень
холодно
1013.7 1013.0 +16.7 3
19 11.06 ЮВ 4 30 км слаб. морось {дождь} н/о +14.5 +12.7 89 +13 +13 очень
холодно
1014.2 1013.5
20 11.06 В 5 30 км н/о +14.5 +12.5 88 +13 +13 очень
холодно
1014.1 1013.4
21 11.06 В 3 30 км {дождь} 6/5 300 м
[Cu Sc As trans Ci sp]
+14.6 +13.0 90 +14 +14 холодно 1015.2 1014.5 0.4
22 11.06 В 1 30 км н/о +14.9 +12.6 86 +15 +15 прохладно 1015.5 1014.8
23 11.06 С 1 30 км н/о +13.9 +12.8 93 +15 +15 прохладно 1015.4 1014.7
00 12.06 СЗ 2 20 км {дождь} 1/1 600 м
[Cu hum]
+13.0 +12.2 95 +12 +12 холодно 1015.1 1014.4
01 12.06 С 2 14 км н/о +12.5 +11.9 96 +12 +12 холодно 1015.0 1014.3
02 12.06 С 3 9000 м дымка н/о +12.2 +11.6 96 +10 +10 очень
холодно
1014.7 1014.0
03 12.06 С 4 8000 м дымка 1/1 300 м
[St Ci fib]
+11.5 +10.9 96 +9 +9 очень
холодно
1014.4 1013.7
04 12.06 С 5 2100 м дымка н/о +11.4 +11.1 98 +9 +9 очень
холодно
1014.6 1013.9
05 12.06 С 4 3400 м дымка н/о +11.9 +11.6 98 +10 +10 очень
холодно
1015.0 1014.3
06 12.06 С 4 5000 м дымка 3/1 100 м
[St Ac cast]
+13.4 +12.5 94 +12 +13 холодно 1015.4 1014.7 +11.4
07 12.06 С 4 7000 м дымка н/о +15.3 +13.4 88 +14 +14 очень
холодно
1015.9 1015.2
08 12.06 СЗ 1 19 км н/о +17.9 +14.0 78 +19 +19 прохладно 1016.1 1015.5
09 12.06 Ю 4 25 км 4/4 300 м
[Cu med, cong]
+18.3 +13.1 72 +19 +24 прохладно 1016.1 1015.5
10 12.06 ЮЗ 5 30 км н/о +19.0 +13.2 69 +20 +20 холодно 1016.2 1015.6
11 12.06 ЮЗ 7 30 км н/о +19.3 +11.6 61 +20 +20 холодно 1015.9 1015.3
12 12.06 ЮЗ 6 35 км 3/1 600 м
[Cu hum Ci sp]
+20.1 +11.8 59 +22 +29 комфорт 1015.8 1015.2
13 12.06 ЮЗ 6 30 км н/о +20.0 +11.4 58 +21 +21 комфорт 1015.4 1014.8
14 12.06 ЮЗ 6 30 км н/о +20.1 +11.5 58 +22 +22 комфорт 1015.1 1014.5
15 12.06 ЮЗ 6 35 км 1/1 1000 м
[Cu hum Ci sp]
+20.1 +12.2 60 +22 +26 комфорт 1014.9 1014.3
16 12.06 ЮЗ 6 25 км н/о +20.0 +12.7 63 +21 +21 комфорт 1014.8 1014.2
17 12.06 ЮЗ 6 30 км н/о +19.8 +12.6 63 +21 +21 комфорт 1014.6 1014.0
18 12.06 ЮЗ 5 35 км 1/1 300 м
[St]
+19.8 +13.1 65 +21 +22 комфорт 1014.9 1014.3 +20.3
19 12.06 З 3 30 км н/о +18.9 +13.1 69 +20 +20 по сезону 1015.1 1014.5
20 12.06 З 2 30 км н/о +17.5 +13.2 76 +18 +18 прохладно 1015.5 1014.9
21 12.06 З 1 30 км 8/8 600 м
[Cu hum]
+17.4 +12.9 75 +18 +18 по сезону 1016.1 1015.5
22 12.06 С 2 30 км н/о +16.7 +12.4 76 +17 +17 по сезону 1016.0 1015.3
23 12.06 С 3 30 км н/о +16.0 +12.4 79 +16 +16 прохладно 1016.0 1015.3
00 13.06 С 3 30 км 4/4 600 м
[Cu Sc]
+15.1 +11.9 81 +14 +14 прохладно 1015.7 1015.0
01 13.06 С 4 30 км н/о +14.6 +11.9 84 +13 +13 холодно 1015.6 1014.9
02 13.06 С 4 30 км н/о +14.4 +11.9 85 +13 +13 холодно 1015.3 1014.6
03 13.06 С 4 25 км 1/1 600 м
[Cu hum]
+13.9 +11.4 85 +13 +13 холодно 1015.3 1014.6
04 13.06 С 5 22 км н/о +13.2 +10.9 86 +11 +11 очень
холодно
1015.1 1014.4
05 13.06 С 5 27 км н/о +13.8 +10.4 80 +12 +12 холодно 1015.1 1014.4
06 13.06 С 5 30 км ясно +15.4 +11.2 76 +14 +15 холодно 1015.4 1014.7 +13.0
07 13.06 С 5 30 км н/о +17.4 +11.2 67 +17 +17 холодно 1015.4 1014.8
08 13.06 СВ 3 20 км н/о +20.3 +12.6 61 +23 +23 комфорт 1015.6 1015.0
09 13.06 ЮВ 4 30 км 1/1 600 м
[Cu Sc Ac As Cs]
+20.9 +12.7 59 +23 +31 комфорт 1015.4 1014.8
10 13.06 ЮВ 5 30 км н/о +20.4 +14.4 68 +23 +23 комфорт 1015.6 1015.0
11 13.06 ЮВ 5 30 км н/о +20.8 +13.7 64 +23 +23 комфорт 1015.0 1014.4
12 13.06 ЮВ 6 30 км 6/0
[Ac As Cs]
+20.9 +14.8 68 +24 +30 комфорт 1014.7 1014.1
13 13.06 ЮВ 7 30 км н/о +20.2 +14.4 69 +22 +22 комфорт 1014.5 1013.9
14 13.06 В 7 30 км н/о +20.8 +13.2 62 +23 +23 комфорт 1014.0 1013.4
15 13.06 В 6 30 км 8/1 1000 м
[Cu Sc Ac As Cs]
+21.3 +12.5 57 +24 +26 комфорт 1013.7 1013.1
16 13.06 В 7 30 км н/о +21.0 +13.6 63 +23 +23 комфорт 1013.1 1012.5
17 13.06 В 7 30 км н/о +20.1 +13.6 66 +22 +22 комфорт 1012.6 1012.0
18 13.06 В 8 25 км 8/1 1000 м
[Cu Sc Ac As Cs]
+19.6 +12.7 64 +20 +21 прохладно 1012.3 1011.7 +21.5
19 13.06 СВ 7 30 км н/о +19.8 +10.3 54 +21 +21 комфорт 1012.5 1011.9
20 13.06 В 6 30 км н/о +19.5 +11.3 59 +20 +20 по сезону 1013.0 1012.4
21 13.06 В 6 35 км 4/0
[Ac cast]
+19.7 +9.5 52 +20 +20 по сезону 1013.0 1012.4
22 13.06 В 5 30 км н/о +19.5 +11.1 58 +20 +20 тепло 1013.1 1012.5
23 13.06 С 4 30 км н/о +18.3 +5.5 43 +18 +18 по сезону 1012.6 1012.0
00 14.06 С 4 35 км 1/0
[Ac cast]
+18.1 +5.0 42 +18 +18 по сезону 1011.5 1010.9
01 14.06 С 6 30 км н/о +18.5 +4.9 41 +18 +18 по сезону 1010.1 1009.5
02 14.06 С 6 30 км н/о +18.9 +5.3 41 +19 +19 по сезону 1009.1 1008.5
03 14.06 С 4 35 км 3/0
[Ac cast Ci ing]
+18.9 +6.5 44 +19 +19 по сезону 1008.2 1007.6
04 14.06 С 5 30 км н/о +18.8 +7.8 49 +19 +19 по сезону 1007.5 1006.9
05 14.06 СВ 3 30 км н/о +19.2 +9.0 52 +20 +20 тепло 1007.6 1007.0
06 14.06 ЮЗ 1 30 км 9/0
[As trans Cs]
+21.1 +10.3 50 +23 +24 комфорт 1008.5 1007.9 +18.0
07 14.06 С 3 26 км н/о +21.7 +12.0 54 +24 +24 комфорт 1008.9 1008.3
08 14.06 СВ 4 28 км н/о +21.6 +11.6 53 +24 +24 комфорт 1008.5 1007.9
09 14.06 З 5 25 км 8/0
[Ac As Cs]
+23.8 +14.0 54 +26 +31 жарко 1009.2 1008.6
10 14.06 Ю 3 24 км н/о +25.6 +13.5 47 +28 +28 жарко 1008.4 1007.8
11 14.06 ЮЗ 5 22 км н/о +22.3 +16.0 68 +26 +26 жарко 1009.9 1009.3
12 14.06 З 11 19 км 5/0
[Cs]
+24.2 +14.7 55 +27 +27 жарко 1009.3 1008.7
13 14.06 З 12 20 км н/о +23.5 +16.9 66 +27 +27 душно 1010.0 1009.4
14 14.06 З 10 21 км н/о +22.6 +16.8 70 +27 +27 душно 1010.0 1009.4
15 14.06 З 10 19 км н/о +23.5 +16.7 66 +27 +27 душно 1010.0 1009.4
16 14.06 З 9 26 км н/о +23.1 +16.7 67 +28 +28 душно 1010.6 1010.0
17 14.06 З 9 14 км н/о +22.4 +17.0 72 +27 +27 душно 1010.9 1010.3
18 14.06 З 7 13 км ясно +22.0 +16.5 71 +26 +26 душно 1011.2 1010.6 +25.7
19 14.06 ЮЗ 7 27 км н/о +21.4 +14.7 66 +24 +24 комфорт 1011.7 1011.1
20 14.06 З 6 24 км н/о +20.9 +13.3 62 +23 +23 комфорт 1012.2 1011.6
21 14.06 ЮЗ 4 25 км ясно +20.5 +14.6 69 +23 +23 комфорт 1013.3 1012.7
22 14.06 ЮЗ 4 19 км н/о +20.2 +15.2 73 +23 +23 комфорт 1013.8 1013.2
23 14.06 З 2 15 км н/о +19.7 +15.7 78 +23 +23 комфорт 1013.9 1013.3
00 15.06 штиль 0 30 км 1/1 600 м
[Cu Sc]
+19.1 +14.8 76 +20 +20 тепло 1013.5 1012.9
01 15.06 З 1 19 км н/о +18.6 +15.1 80 +20 +20 тепло 1013.7 1013.1
02 15.06 С 1 20 км н/о +17.3 +13.8 80 +18 +18 по сезону 1013.8 1013.2
03 15.06 С 4 25 км 1/1 600 м
[Cu Sc]
+17.2 +13.7 80 +17 +17 по сезону 1013.9 1013.3
04 15.06 С 4 15 км н/о +17.3 +13.8 80 +17 +17 прохладно 1014.1 1013.5
05 15.06 С 3 18 км н/о +17.6 +14.5 82 +18 +18 по сезону 1014.7 1014.1
06 15.06 С 4 15 км 8/1 300 м
[Cu Sc Ac As Cs]
+18.4 +14.3 77 +19 +20 по сезону 1015.4 1014.8 +16.9
07 15.06 СВ 2 13 км н/о +21.4 +15.9 71 +25 +25 комфорт 1015.9 1015.3
08 15.06 СВ 2 11 км н/о +23.0 +17.5 71 +28 +28 душно 1016.1 1015.5
09 15.06 В 5 12 км 1/1 600 м
[Cu hum]
+23.2 +17.4 70 +29 +35 душно 1016.3 1015.7
10 15.06 ЮВ 4 12 км н/о +22.4 +18.2 77 +28 +28 душно 1016.6 1016.0
11 15.06 ЮВ 4 15 км н/о +22.6 +17.7 74 +28 +28 душно 1017.0 1016.4
12 15.06 ЮВ 5 16 км 3/3 300 м
[Cu hum]
+22.8 +17.4 72 +28 +35 душно 1017.0 1016.4
13 15.06 В 5 15 км н/о +22.7 +17.8 74 +28 +28 душно 1016.7 1016.1
14 15.06 В 5 10 км н/о +22.0 +18.2 79 +27 +27 душно 1017.0 1016.4
15 15.06 В 6 12 км 9/9 300 м
[St]
+21.6 +18.0 80 +26 +27 душно 1017.2 1016.6
16 15.06 В 6 19 км н/о +21.2 +17.5 79 +25 +25 комфорт 1017.2 1016.6
17 15.06 В 7 25 км н/о +21.7 +16.8 74 +26 +26 душно 1017.5 1016.9
18 15.06 В 5 25 км 9/9 600 м
[Sc]
+20.9 +16.0 74 +24 +24 комфорт 1018.2 1017.6 +23.6
19 15.06 В 4 30 км н/о +20.4 +16.1 76 +24 +24 комфорт 1018.7 1018.1
20 15.06 В 3 30 км н/о +19.8 +16.1 79 +22 +22 комфорт 1019.3 1018.7
21 15.06 В 3 30 км 3/3 600 м
[Sc]
+19.7 +16.2 80 +22 +22 комфорт 1020.2 1019.6
22 15.06 З 2 21 км н/о +18.8 +15.8 83 +21 +21 комфорт 1020.6 1020.0

 

Местоположение метеостанции Барселона (Испания): широта 41.28 долгота 2.07 высота над уровнем моря 6 м.

В архиве по умолчанию представлена погода в Барселоне за последнюю неделю. Архивные данные за месяц целиком и за предыдущие месяцы, начиная с января 2011 года, Вы можете получить, выбрав интересующий диапазон дат из раскрывающегося списка и нажав кнопку "Ввод!".


*Определитесь, кто Вы:
робот инопланетянин человек

Внимание! Время в таблицах - всемирное. Для получения местного времени необходимо прибавить поправку, которая равна 1 ч.

Смотрите также архив погоды в соседних городах и на ближайших метеорологических станциях:

Погода в Барселоне - CMT (Испания) (16 км)
Погода в Ареньс-де-Маре (Испания) (52 км)
Погода в Манресе (Испания) (53 км)
Погода в Санта-Сусанне (Испания) (67 км)
Погода в Реусе (Испания) (77 км)
Погода в Тарреге (Испания) (87 км)
Погода в Жероне (Испания) (90 км)
Погода в Риполе (Испания) (102 км)
Погода в Вандельосе (Испания) (107 км)
Погода в Поркересе (Испания) (108 км)

Пояснения к столбцам:

Ветер - указаны скорость ветра в м/с - средняя за 10 мин, порывы в срок и между сроками (в фигурных скобках) и направление, откуда дует ветер: С - северный, СВ - северо-восточный, В - восточный, ЮВ - юго-восточный, Ю - южный, ЮЗ - юго-западный, З - западный, СЗ - северо-западный.
Видимость - горизонтальная дальность видимости в метрах или километрах. При видимости от 1 до 10 км при отсутствии осадков обычно наблюдается дымка, при ухудшении видимости до 1 км и менее - туман. В сухую погоду видимость может ухудшаться дымом, пылью или мглою.
Явления - указаны атмосферные явления, наблюдавшиеся в срок или в последний час перед сроком; фигурными скобками обозначены явления, наблюдавшиеся между сроками (за 1-3 часа до срока); квадратными скобками обозначены град или гололедные отложения с указанием их диаметра в мм.
Облачность - указаны через наклонную черту общая и нижняя облачность в баллах и высота нижней границы облаков в метрах; квадратными скобками обозначены формы облаков: Ci - перистые, Cs - перисто-слоистые, Cc - перисто-кучевые, Ac - высококучевые, As - высокослоистые, Sc - слоисто-кучевые, Ns - слоисто-дождевые, Cu - кучевые, Cb - кучево-дождевые. Подробнее классификацию облаков см. в Атласе облаков (PDF).
T - Температура воздуха - температура, измеренная на высоте 2 м над землей.
Td - Температура точки росы - температура, при понижении до которой содержащийся в воздухе водяной пар достигнет насыщения.
f - Относительная влажность воздуха - влажноcть воздуха, измеренная на высоте 2 м над землей.
Te - Эффективная температура - температура, которую ощущает одетый по сезону человек в тени. Характеристика душности погоды. При расчете учитывается влияние влажности воздуха и скорости ветра на теплоощущения человека.
Tes - Эффективная температура на солнце - температура, которую ощущает человек, с поправкой на солнечный нагрев. Характеристика знойности погоды. Зависит от высоты солнца над горизонтом, облачности и скорости ветра. Ночью, в пасмурную погоду, а также при ветре 12 м/с и более поправка равна нулю.
P - Атмосферное давление - приведенное к уровню моря атмосферное давление.
Po - Атмосферное давление - измеренное на уровне метеостанции атмосферное давление.
Tmin - Минимальная температура - минимум температуры воздуха на высоте 2 м над землей.
Tmax - Максимальная температура - максимум температуры воздуха на высоте 2 м над землей.
R - Количество осадков - Количество выпавших осадков за период времени, мм. При наведении курсора мыши на число - период времени, за который выпало указанное количество осадков.
R24 - Количество осадков - Количество выпавших осадков за 24 часа, мм.
S - Снежный покров - Высота снежного покрова, см. При наведении курсора мыши на число - состояние снежного покрова и степень покрытия местности в баллах.